www.pogodaiklimat.ru

АРХИВ ПОГОДЫ в Биллингсе

Время (UTC), дата Ветер
(напр.,м/с)
 
Видим.   Явления Облачность Т
(С)
Тd
(С)
f
(%)
Тe
(С)
Тes
(С)
Комфортность

P
(гПа)

Po
(гПа)
Тmin
(С)
Tmax
(С)
R
(мм)
SD
(см)
15:53 21.05 СВ  16 км  слабый дождь  10/10 240 м  +6.1  +3.9  86  +1  +1    1009.2  882.2         
16:53 21.05 В  14 км  слабый дождь  10/10 240 м  +6.7  +3.9  82  +2  +2    1009.3  882.2  +5.0  +6.7  0.5   
17:53 21.05 СВ  13 км  слабый дождь  10/10 240 м  +6.1  +3.9  86  +2  +2    1009.4  882.2         
18:22 21.05 СВ  16 км  слабый дождь  10/10 210 м  +6.7  +3.9  82  +1  +1      882.2         
18:53 21.05 СВ  16 км  слабый дождь  10/10 210 м  +6.7  +3.9  82  +2  +2    1009.5  882.5         
19:02 21.05 СВ  16 км  слабый дождь  10/10 240 м  +6.7  +3.9  82  +1  +1      882.2         
19:32 21.05 СВ  16 км    10/10 360 м  +7.2  +3.9  80  +2  +2      882.2         
19:53 21.05 СВ  16 км    10/10 360 м  +6.7  +3.3  79  +2  +2    1009.4  882.2      1.3   
20:53 21.05 СВ  16 км  слабый дождь  10/10 300 м  +6.7  +3.9  82  +2  +2    1009.6  882.5         
21:09 21.05 В  16 км  слабый дождь  10/10 210 м  +6.7  +3.9  82  +2  +2      882.5         
21:53 21.05 СВ  16 км  слабый дождь  10/10 270 м  +6.7  +3.3  79  +2  +2    1009.6  882.5         
22:53 21.05 СВ  16 км    10/10 450 м  +6.7  +3.3  79  +1  +1    1009.9  882.8  +6.1  +7.2  2.0   
23:53 21.05 СВ  14 км  слабый дождь  10/10 300 м  +6.1  +3.9  86  +1  +1    1010.2  882.8         
00:07 22.05 СВ  11 км  слабый дождь  10/10 210 м  +6.1  +3.9  86  +1  +1      882.8         
00:53 22.05 СВ  6 км  слабый дождь, дымка  10/10 120 м  +5.6  +3.9  89  0  0    1010.7  883.4         
01:53 22.05 СВ  14 км  слабый дождь  10/10 90 м  +5.6  +3.9  89  +1  +1    1011.2  883.7      1.8   
02:53 22.05 СВ  11 км  слабый дождь  10/10 120 м  +5.6  +3.9  89  -0  -0    1011.9  884.3         
03:14 22.05 СВ  16 км  слабый дождь  10/10 180 м  +5.0  +3.3  89  -0  -0      884.3         
03:33 22.05 СВ  14 км  слабый дождь  10/10 180 м  +5.0  +3.3  89  -0  -0      884.6         
03:35 22.05 СВ  14 км  слабый дождь  10/10 180 м  +5.0  +3.3  89  0  0      884.6         
03:53 22.05 СВ  14 км  слабый дождь  10/10 180 м  +5.0  +3.3  89  0  0    1012.3  884.6         
04:05 22.05 СВ  14 км  слабый дождь  10/10 90 м  +5.0  +3.3  89  +1  +1      884.6         
04:20 22.05 СВ  10 км  слабый дождь, дымка  10/10 90 м  +5.0  +3.3  89  0  0      884.6         
04:53 22.05 СВ  2 км  слабый дождь, дымка  10/10 90 м  +5.0  +3.3  89  +1  +1    1011.9  884.6  +5.0  +6.7  3.6   
05:53 22.05 СВ  2 км  слабый дождь  10/10 120 м  +5.6  +3.9  89  0  0    1011.5  884.0         
06:08 22.05 СВ  16 км  слабый дождь  10/10 120 м  +5.6  +3.9  89  +1  +1      884.0         
06:53 22.05 СВ  16 км  слабый дождь  10/10 90 м  +5.6  +3.9  89  +2  +2    1011.7  884.3         
07:53 22.05 С  16 км  слабый дождь  10/10 120 м  +5.6  +3.9  89  +2  +2    1011.5  884.0      1.0   
08:28 22.05 С  16 км  слабый дождь  10/10 90 м  +5.6  +3.9  89  +2  +2      884.3         
08:53 22.05 С  16 км  слабый дождь  10/10 240 м  +5.6  +3.9  89  +2  +2    1011.8  884.3         
09:08 22.05 С  16 км  слабый дождь  10/10 240 м  +5.6  +3.9  89  +2  +2      884.3         
09:53 22.05 СЗ  16 км  слабый дождь  10/10 240 м  +5.6  +3.9  89  +2  +2    1011.8  884.3         
10:53 22.05 СЗ  16 км  слабый дождь  10/10 240 м  +6.1  +3.3  82  +2  +2    1011.9  884.6  +5.0  +6.1  1.5   
11:53 22.05 СЗ  16 км    10/8 1650 м
[средняя] 
+6.1  +3.9  86  +2  +2    1012.3  884.9         
12:53 22.05 З  16 км    10/8 1950 м
[средняя] 
+7.8  +3.3  73  +5  +5    1012.2  884.9         
13:53 22.05 СЗ  16 км    10/2 1800 м
[средняя] 
+8.9  +5.0  77  +6  +7    1012.4  885.2         
14:53 22.05 С  16 км    10/5 1950 м
[средняя] 
+11.1  +4.4  63  +9  +9    1012.1  885.2         
15:53 22.05 С  16 км    10/2 810 м
[средняя] 
+11.7  +3.3  56  +9  +9    1012.7  885.8         
16:53 22.05 СВ  16 км    10/0 2100 м
[средняя] 
+12.2  +2.8  53  +10  +11    1012.9  886.1  +6.1  +12.2     
17:53 22.05 СВ  16 км    10/8 1200 м
[средняя] 
+12.8  +2.2  48  +10  +11    1013.1  886.4         
18:53 22.05 СВ  16 км    10/2 1350 м
[средняя] 
+14.4  +1.7  42  +12  +13    1013.1  886.7         
19:53 22.05 СВ  16 км    10/8 1650 м
[средняя] 
+15.0  +1.1  39  +13  +14    1013.5  887.0         
20:53 22.05 СВ  16 км    8/2 1800 м
[средняя] 
+15.6  +1.7  39  +14  +16    1013.6  887.0         
21:53 22.05 СВ  16 км    8/2 1800 м
[средняя] 
+15.0  +2.2  42  +14  +16    1013.8  887.3         
22:53 22.05 С  16 км    8/2 1800 м
[средняя] 
+15.0  +1.7  41  +14  +15    1014.2  887.6  +12.2  +16.7     
23:53 22.05 С  16 км    10/0 2100 м
[средняя] 
+14.4  +2.2  44  +13  +14    1014.5  887.9         
00:53 23.05 В  16 км    10/10 1800 м  +12.8  +3.3  52  +13  +13    1015.2  888.5         
01:53 23.05 Ю  16 км  слабый дождь  10/10 1350 м  +11.7  +3.9  59  +10  +10    1016.8  889.7         

 

Местоположение метеостанции Billings Logan International Airport: широта 45.8069 долгота -108.5422 высота над уровнем моря 1112 м.

В архиве по умолчанию представлена погода в Биллингсе за последние 1-2 суток. Обновление информации о фактической погоде в базе происходит ежечасно! Архивные данные за месяц целиком и за предыдущие месяцы Вы можете получить, выбрав интересующий диапазон дат из раскрывающегося списка и нажав кнопку "Ввод!".

Внимание! Архив погоды МЕТАР в базе сайта в настоящее время начинается c 1 января 2011 г. Нет смысла пытаться выбрать более раннюю дату.

Внимание! Время в таблицах - всемирное. Для получения местного времени необходимо прибавить поправку, которая в Биллингсе равна -7 ч.

Ветер - указаны скорость ветра в м/с и направление, откуда дует ветер: С - северный, СВ - северо-восточный, В - восточный, ЮВ - юго-восточный, Ю - южный, ЮЗ - юго-западный, З - западный, СЗ - северо-западный.
Видимость - горизонтальная дальность видимости в метрах или километрах. При видимости от 1 до 10 км при отсутствии осадков обычно наблюдается дымка, при ухудшении видимости до 1 км и менее - туман. В сухую погоду видимость может ухудшаться дымом, пылью или мглою.
Атмосферные явления - указаны явления, наблюдавшиеся в указанный момент времени.
Облачность - указаны через наклонную черту верхняя и нижняя облачность в баллах и высота нижней границы облаков в метрах. Внимание: облачность, как и прочие метеорологические величины в США измеряются автоматическими метеостанциями. Указанные значения в баллах носят условный характер и показывают процент времени, в течение которого, в среднем, лазерный луч высотомера отражался от облаков обратно.
T - Температура воздуха - температура, измеренная на высоте 2 м над землей.
Td - Температура точки росы - температура, при понижении до которой содержащийся в воздухе водяной пар достигнет насыщения.
f - Относительная влажность воздуха - влажноcть воздуха, измеренная на высоте 2 м над землей.
Te - Эффективная температура - температура, которую ощущает одетый по сезону человек в тени. Характеристика душности погоды. При расчете учитывается влияние влажности воздуха и скорости ветра на теплоощущения человека.
Tes - Эффективная температура на солнце - температура, которую ощущает человек, с поправкой на солнечный нагрев. Характеристика знойности погоды. Зависит от высоты солнца над горизонтом, облачности и скорости ветра. Ночью, в пасмурную погоду, а также при ветре 12 м/с и более поправка равна нулю.
P - Атмосферное давление - приведенное к уровню моря атмосферное давление.
Po - Атмосферное давление - измеренное на уровне метеостанции атмосферное давление.
Tmin - Минимальная температура - минимум температуры воздуха на высоте 2 м над землей.
Tmax - Максимальная температура - максимум температуры воздуха на высоте 2 м над землей.
R - Количество осадков - Количество выпавших осадков за 3 или 6 часов, мм.
SD - Снежный покров - Высота снежного покрова, см.